Year,Month,Day,Hour,Minute,Value (Times are PST for barometer in hPa)
2014,12,29,00,00,1023.60
2014,12,29,00,01,1023.55
2014,12,29,00,02,1023.60
2014,12,29,00,03,1023.67
2014,12,29,00,04,1023.64
2014,12,29,00,05,1023.71
2014,12,29,00,06,1023.71
2014,12,29,00,07,1023.81
2014,12,29,00,08,1023.84
2014,12,29,00,09,1023.84
2014,12,29,00,10,1023.88
2014,12,29,00,11,1023.98
2014,12,29,00,12,1023.98
2014,12,29,00,13,1023.98
2014,12,29,00,14,1023.94
2014,12,29,00,15,1023.88
2014,12,29,00,16,1023.84
2014,12,29,00,17,1023.77
2014,12,29,00,18,1023.71
2014,12,29,00,19,1023.74
2014,12,29,00,20,1023.67
2014,12,29,00,21,1023.67
2014,12,29,00,22,1023.71
2014,12,29,00,23,1023.67
2014,12,29,00,24,1023.71
2014,12,29,00,25,1023.71
2014,12,29,00,26,1023.77
2014,12,29,00,27,1023.71
2014,12,29,00,28,1023.71
2014,12,29,00,29,1023.71
2014,12,29,00,30,1023.71
2014,12,29,00,31,1023.77
2014,12,29,00,32,1023.81
2014,12,29,00,33,1023.84
2014,12,29,00,34,1023.81
2014,12,29,00,35,1023.77
2014,12,29,00,36,1023.74
2014,12,29,00,37,1023.77
2014,12,29,00,38,1023.77
2014,12,29,00,39,1023.81
2014,12,29,00,40,1023.88
2014,12,29,00,41,1023.91
2014,12,29,00,42,1023.91
2014,12,29,00,43,1023.94
2014,12,29,00,44,1023.88
2014,12,29,00,45,1023.84
2014,12,29,00,46,1023.94
2014,12,29,00,47,1024.01
2014,12,29,00,48,1023.98
2014,12,29,00,49,1023.99
2014,12,29,00,50,1024.11
2014,12,29,00,51,1024.11
2014,12,29,00,52,1024.18
2014,12,29,00,53,1024.18
2014,12,29,00,54,1024.15
2014,12,29,00,55,1024.15
2014,12,29,00,56,1024.08
2014,12,29,00,57,1024.15
2014,12,29,00,58,1024.18
2014,12,29,00,59,1024.18
2014,12,29,01,00,1024.21
2014,12,29,01,01,1024.15
2014,12,29,01,02,1024.21
2014,12,29,01,03,1024.18
2014,12,29,01,04,1024.21
2014,12,29,01,05,1024.25
2014,12,29,01,06,1024.32
2014,12,29,01,07,1024.35
2014,12,29,01,08,1024.45
2014,12,29,01,09,1024.48
2014,12,29,01,10,1024.45
2014,12,29,01,11,1024.42
2014,12,29,01,12,1024.35
2014,12,29,01,13,1024.35
2014,12,29,01,14,1024.32
2014,12,29,01,15,1024.32
2014,12,29,01,16,1024.35
2014,12,29,01,17,1024.32
2014,12,29,01,18,1024.35
2014,12,29,01,19,1024.28
2014,12,29,01,20,1024.32
2014,12,29,01,21,1024.38
2014,12,29,01,22,1024.38
2014,12,29,01,23,1024.45
2014,12,29,01,24,1024.48
2014,12,29,01,25,1024.45
2014,12,29,01,26,1024.38
2014,12,29,01,27,1024.42
2014,12,29,01,28,1024.43
2014,12,29,01,29,1024.55
2014,12,29,01,30,1024.55
2014,12,29,01,31,1024.52
2014,12,29,01,32,1024.59
2014,12,29,01,33,1024.69
2014,12,29,01,34,1024.59
2014,12,29,01,35,1024.62
2014,12,29,01,36,1024.69
2014,12,29,01,37,1024.76
2014,12,29,01,38,1024.82
2014,12,29,01,39,1024.82
2014,12,29,01,40,1024.79
2014,12,29,01,41,1024.82
2014,12,29,01,42,1024.79
2014,12,29,01,43,1024.82
2014,12,29,01,44,1024.86
2014,12,29,01,45,1024.79
2014,12,29,01,46,1024.86
2014,12,29,01,47,1024.92
2014,12,29,01,48,1024.99
2014,12,29,01,49,1024.96
2014,12,29,01,50,1024.92
2014,12,29,01,51,1024.99
2014,12,29,01,52,1024.92
2014,12,29,01,53,1024.96
2014,12,29,01,54,1025.06
2014,12,29,01,55,1025.03
2014,12,29,01,56,1025.09
2014,12,29,01,57,1025.13
2014,12,29,01,58,1025.16
2014,12,29,01,59,1025.23
2014,12,29,02,00,1025.26
2014,12,29,02,01,1025.30
2014,12,29,02,02,1025.33
2014,12,29,02,03,1025.30
2014,12,29,02,04,1025.33
2014,12,29,02,05,1025.40
2014,12,29,02,06,1025.40
2014,12,29,02,07,1025.43
2014,12,29,02,08,1025.37
2014,12,29,02,09,1025.40
2014,12,29,02,10,1025.40
2014,12,29,02,11,1025.40
2014,12,29,02,12,1025.47
2014,12,29,02,13,1025.50
2014,12,29,02,14,1025.47
2014,12,29,02,15,1025.43
2014,12,29,02,16,1025.47
2014,12,29,02,17,1025.50
2014,12,29,02,18,1025.53
2014,12,29,02,19,1025.53
2014,12,29,02,20,1025.57
2014,12,29,02,21,1025.60
2014,12,29,02,22,1025.70
2014,12,29,02,23,1025.70
2014,12,29,02,24,1025.67
2014,12,29,02,25,1025.70
2014,12,29,02,26,1025.74
2014,12,29,02,27,1025.77
2014,12,29,02,28,1025.74
2014,12,29,02,29,1025.70
2014,12,29,02,30,1025.74
2014,12,29,02,31,1025.74
2014,12,29,02,32,1025.81
2014,12,29,02,33,1025.84
2014,12,29,02,34,1025.84
2014,12,29,02,35,1025.87
2014,12,29,02,36,1025.84
2014,12,29,02,37,1025.88
2014,12,29,02,38,1026.04
2014,12,29,02,39,1026.04
2014,12,29,02,40,1026.08
2014,12,29,02,41,1026.08
2014,12,29,02,42,1026.04
2014,12,29,02,43,1026.04
2014,12,29,02,44,1026.08
2014,12,29,02,45,1026.11
2014,12,29,02,46,1026.11
2014,12,29,02,47,1026.08
2014,12,29,02,48,1026.04
2014,12,29,02,49,1026.02
2014,12,29,02,50,1026.14
2014,12,29,02,51,1026.11
2014,12,29,02,52,1026.21
2014,12,29,02,53,1026.25
2014,12,29,02,54,1026.28
2014,12,29,02,55,1026.35
2014,12,29,02,56,1026.28
2014,12,29,02,57,1026.35
2014,12,29,02,58,1026.38
2014,12,29,02,59,1026.38
2014,12,29,03,00,1026.41
2014,12,29,03,01,1026.38
2014,12,29,03,02,1026.45
2014,12,29,03,03,1026.41
2014,12,29,03,04,1026.41
2014,12,29,03,05,1026.45
2014,12,29,03,06,1026.39
2014,12,29,03,07,1026.48
2014,12,29,03,08,1026.48
2014,12,29,03,09,1026.55
2014,12,29,03,10,1026.55
2014,12,29,03,11,1026.48
2014,12,29,03,12,1026.48
2014,12,29,03,13,1026.55
2014,12,29,03,14,1026.58
2014,12,29,03,15,1026.58
2014,12,29,03,16,1026.55
2014,12,29,03,17,1026.55
2014,12,29,03,18,1026.62
2014,12,29,03,19,1026.62
2014,12,29,03,20,1026.55
2014,12,29,03,21,1026.48
2014,12,29,03,22,1026.55
2014,12,29,03,23,1026.55
2014,12,29,03,24,1026.58
2014,12,29,03,25,1026.58
2014,12,29,03,26,1026.62
2014,12,29,03,27,1026.62
2014,12,29,03,28,1026.68
2014,12,29,03,29,1026.58
2014,12,29,03,30,1026.58
2014,12,29,03,31,1026.62
2014,12,29,03,32,1026.69
2014,12,29,03,33,1026.72
2014,12,29,03,34,1026.72
2014,12,29,03,35,1026.75
2014,12,29,03,36,1026.76
2014,12,29,03,37,1026.86
2014,12,29,03,38,1026.79
2014,12,29,03,39,1026.79
2014,12,29,03,40,1026.82
2014,12,29,03,41,1026.86
2014,12,29,03,42,1026.82
2014,12,29,03,43,1026.82
2014,12,29,03,44,1026.82
2014,12,29,03,45,1026.86
2014,12,29,03,46,1026.96
2014,12,29,03,47,1026.89
2014,12,29,03,48,1026.96
2014,12,29,03,49,1026.99
2014,12,29,03,50,1027.02
2014,12,29,03,51,1027.02
2014,12,29,03,52,1027.02
2014,12,29,03,53,1027.09
2014,12,29,03,54,1027.09
2014,12,29,03,55,1027.09
2014,12,29,03,56,1027.09
2014,12,29,03,57,1027.09
2014,12,29,03,58,1027.06
2014,12,29,03,59,1027.13
2014,12,29,04,00,1027.13
2014,12,29,04,01,1027.19
2014,12,29,04,02,1027.13
2014,12,29,04,03,1027.13
2014,12,29,04,04,1027.16
2014,12,29,04,05,1027.19
2014,12,29,04,06,1027.19
2014,12,29,04,07,1027.19
2014,12,29,04,08,1027.13
2014,12,29,04,09,1027.13
2014,12,29,04,10,1027.16
2014,12,29,04,11,1027.19
2014,12,29,04,12,1027.26
2014,12,29,04,13,1027.26
2014,12,29,04,14,1027.30
2014,12,29,04,15,1027.26
2014,12,29,04,16,1027.23
2014,12,29,04,17,1027.30
2014,12,29,04,18,1027.30
2014,12,29,04,19,1027.33
2014,12,29,04,20,1027.36
2014,12,29,04,21,1027.36
2014,12,29,04,22,1027.33
2014,12,29,04,23,1027.33
2014,12,29,04,24,1027.33
2014,12,29,04,25,1027.33
2014,12,29,04,26,1027.36
2014,12,29,04,27,1027.43
2014,12,29,04,28,1027.46
2014,12,29,04,29,1027.50
2014,12,29,04,30,1027.46
2014,12,29,04,31,1027.50
2014,12,29,04,32,1027.50
2014,12,29,04,33,1027.50
2014,12,29,04,34,1027.46
2014,12,29,04,35,1027.43
2014,12,29,04,36,1027.50
2014,12,29,04,37,1027.53
2014,12,29,04,38,1027.53
2014,12,29,04,39,1027.53
2014,12,29,04,40,1027.60
2014,12,29,04,41,1027.60
2014,12,29,04,42,1027.67
2014,12,29,11,02,1033.36
2014,12,29,11,03,1033.39
2014,12,29,11,04,1033.32
2014,12,29,11,05,1033.36
2014,12,29,11,06,1033.42
2014,12,29,11,07,1033.42
2014,12,29,11,08,1033.39
2014,12,29,11,09,1033.39
2014,12,29,11,10,1033.42
2014,12,29,11,11,1033.36
2014,12,29,11,12,1033.45
2014,12,29,11,13,1033.46
2014,12,29,11,14,1033.29
2014,12,29,11,15,1033.42
2014,12,29,11,16,1033.42
2014,12,29,11,17,1033.36
2014,12,29,11,18,1033.32
2014,12,29,11,19,1033.39
2014,12,29,11,20,1033.39
2014,12,29,11,21,1033.29
2014,12,29,11,22,1033.36
2014,12,29,11,23,1033.42
2014,12,29,11,24,1033.42
2014,12,29,11,25,1033.39
2014,12,29,11,26,1033.29
2014,12,29,11,27,1033.42
2014,12,29,11,28,1033.36
2014,12,29,11,29,1033.32
2014,12,29,11,30,1033.39
2014,12,29,11,31,1033.30
2014,12,29,11,32,1033.39
2014,12,29,11,33,1033.42
2014,12,29,11,34,1033.46
2014,12,29,11,35,1033.46
2014,12,29,11,36,1033.49
2014,12,29,11,37,1033.39
2014,12,29,11,38,1033.42
2014,12,29,11,39,1033.49
2014,12,29,11,40,1033.53
2014,12,29,11,41,1033.53
2014,12,29,11,42,1033.46
2014,12,29,11,43,1033.49
2014,12,29,11,44,1033.49
2014,12,29,11,45,1033.59
2014,12,29,11,46,1033.49
2014,12,29,11,47,1033.49
2014,12,29,11,48,1033.49
2014,12,29,11,49,1033.46
2014,12,29,11,50,1033.56
2014,12,29,11,51,1033.40
2014,12,29,11,52,1033.49
2014,12,29,11,53,1033.49
2014,12,29,11,54,1033.46
2014,12,29,11,55,1033.53
2014,12,29,11,56,1033.49
2014,12,29,11,57,1033.49
2014,12,29,11,58,1033.53
2014,12,29,11,59,1033.49
2014,12,29,12,00,1033.46
2014,12,29,12,01,1033.39
2014,12,29,12,02,1033.29
2014,12,29,12,03,1033.39
2014,12,29,12,04,1033.32
2014,12,29,12,05,1033.39
2014,12,29,12,06,1033.32
2014,12,29,12,07,1033.32
2014,12,29,12,08,1033.29
2014,12,29,12,09,1033.36
2014,12,29,12,10,1033.36
2014,12,29,12,11,1033.29
2014,12,29,12,12,1033.32
2014,12,29,12,13,1033.32
2014,12,29,12,14,1033.26
2014,12,29,12,15,1033.26
2014,12,29,12,16,1033.39
2014,12,29,12,17,1033.29
2014,12,29,12,18,1033.36
2014,12,29,12,19,1033.39
2014,12,29,12,20,1033.39
2014,12,29,12,21,1033.36
2014,12,29,12,22,1033.32
2014,12,29,12,23,1033.39
2014,12,29,12,24,1033.36
2014,12,29,12,25,1033.46
2014,12,29,12,26,1033.46
2014,12,29,12,27,1033.42
2014,12,29,12,28,1033.49
2014,12,29,12,29,1033.42
2014,12,29,12,30,1033.42
2014,12,29,12,31,1033.46
2014,12,29,12,32,1033.42
2014,12,29,12,33,1033.49
2014,12,29,12,34,1033.46
2014,12,29,12,35,1033.39
2014,12,29,12,36,1033.42
2014,12,29,12,37,1033.39
2014,12,29,12,38,1033.39
2014,12,29,12,39,1033.42
2014,12,29,12,40,1033.36
2014,12,29,12,41,1033.39
2014,12,29,12,42,1033.36
2014,12,29,12,43,1033.39
2014,12,29,12,44,1033.42
2014,12,29,12,45,1033.46
2014,12,29,12,46,1033.39
2014,12,29,12,47,1033.39
2014,12,29,12,48,1033.39
2014,12,29,12,49,1033.29
2014,12,29,12,50,1033.46
2014,12,29,12,51,1033.46
2014,12,29,12,52,1033.46
2014,12,29,12,53,1033.49
2014,12,29,12,54,1033.37
2014,12,29,12,55,1033.42
2014,12,29,12,56,1033.42
2014,12,29,12,57,1033.49
2014,12,29,12,58,1033.42
2014,12,29,12,59,1033.49
2014,12,29,13,00,1033.42
2014,12,29,13,01,1033.46
2014,12,29,13,02,1033.49
2014,12,29,13,03,1033.46
2014,12,29,13,04,1033.53
2014,12,29,13,05,1033.53
2014,12,29,13,06,1033.59
2014,12,29,13,07,1033.63
2014,12,29,13,08,1033.59
2014,12,29,13,09,1033.70
2014,12,29,13,10,1033.73
2014,12,29,13,11,1033.66
2014,12,29,13,12,1033.70
2014,12,29,13,13,1033.63
2014,12,29,13,14,1033.70
2014,12,29,13,15,1033.66
2014,12,29,13,16,1033.66
2014,12,29,13,17,1033.66
2014,12,29,13,18,1033.76
2014,12,29,13,19,1033.73
2014,12,29,13,20,1033.76
2014,12,29,13,21,1033.73
2014,12,29,13,22,1033.70
2014,12,29,13,23,1033.66
2014,12,29,13,24,1033.73
2014,12,29,13,25,1033.66
2014,12,29,13,26,1033.66
2014,12,29,13,27,1033.56
2014,12,29,13,28,1033.63
2014,12,29,13,29,1033.70
2014,12,29,13,30,1033.70
2014,12,29,13,31,1033.76
2014,12,29,13,32,1033.80
2014,12,29,13,33,1033.76
2014,12,29,13,34,1033.67
2014,12,29,13,35,1033.66
2014,12,29,13,36,1033.73
2014,12,29,13,37,1033.66
2014,12,29,13,38,1033.73
2014,12,29,13,39,1033.70
2014,12,29,13,40,1033.73
2014,12,29,13,41,1033.73
2014,12,29,13,42,1033.66
2014,12,29,13,43,1033.66
2014,12,29,13,44,1033.66
2014,12,29,13,45,1033.70
2014,12,29,13,46,1033.66
2014,12,29,13,47,1033.70
2014,12,29,13,48,1033.63
2014,12,29,13,49,1033.53
2014,12,29,13,50,1033.69
2014,12,29,13,51,1033.59
2014,12,29,13,52,1033.70
2014,12,29,13,53,1033.76
2014,12,29,13,54,1033.76
2014,12,29,13,55,1033.76
2014,12,29,13,56,1033.80
2014,12,29,13,57,1033.83
2014,12,29,13,58,1033.93
2014,12,29,13,59,1033.83
2014,12,29,14,00,1034.00
2014,12,29,14,01,1033.97
2014,12,29,14,02,1033.97
2014,12,29,14,03,1034.03
2014,12,29,14,04,1034.03
2014,12,29,14,05,1033.97
2014,12,29,14,06,1034.09
2014,12,29,14,07,1034.14
2014,12,29,14,08,1034.14
2014,12,29,14,09,1034.17
2014,12,29,14,10,1034.14
2014,12,29,14,11,1034.14
2014,12,29,14,12,1034.14
2014,12,29,14,13,1034.24
2014,12,29,14,14,1034.27
2014,12,29,14,15,1034.20
2014,12,29,14,16,1034.17
2014,12,29,14,17,1034.27
2014,12,29,14,18,1034.24
2014,12,29,14,19,1034.24
2014,12,29,14,20,1034.34
2014,12,29,14,21,1034.47
2014,12,29,14,22,1034.44
2014,12,29,14,23,1034.41
2014,12,29,14,24,1034.41
2014,12,29,14,25,1034.47
2014,12,29,14,26,1034.44
2014,12,29,14,27,1034.51
2014,12,29,14,28,1034.47
2014,12,29,14,29,1034.47
2014,12,29,14,30,1034.44
2014,12,29,14,31,1034.51
2014,12,29,14,32,1034.51
2014,12,29,14,33,1034.37
2014,12,29,14,34,1034.53
2014,12,29,14,35,1034.58
2014,12,29,14,36,1034.58
2014,12,29,14,37,1034.64
2014,12,29,14,38,1034.61
2014,12,29,14,39,1034.58
2014,12,29,14,40,1034.48
2014,12,29,14,41,1034.47
2014,12,29,14,42,1034.51
2014,12,29,14,43,1034.51
2014,12,29,14,44,1034.51
2014,12,29,14,45,1034.51
2014,12,29,14,46,1034.44
2014,12,29,14,47,1034.51
2014,12,29,14,48,1034.47
2014,12,29,14,49,1034.51
2014,12,29,14,50,1034.51
2014,12,29,14,51,1034.51
2014,12,29,14,52,1034.61
2014,12,29,14,53,1034.42
2014,12,29,14,54,1034.60
2014,12,29,14,55,1034.54
2014,12,29,14,56,1034.54
2014,12,29,14,57,1034.58
2014,12,29,14,58,1034.61
2014,12,29,14,59,1034.64
2014,12,29,15,00,1034.61
2014,12,29,15,01,1034.70
2014,12,29,15,02,1034.75
2014,12,29,15,03,1034.78
2014,12,29,15,04,1034.81
2014,12,29,15,05,1034.81
2014,12,29,15,06,1034.78
2014,12,29,15,07,1034.78
2014,12,29,15,08,1034.81
2014,12,29,15,09,1034.78
2014,12,29,15,10,1034.81
2014,12,29,15,11,1034.81
2014,12,29,15,12,1034.71
2014,12,29,15,13,1034.75
2014,12,29,15,14,1034.81
2014,12,29,15,15,1034.85
2014,12,29,15,16,1034.88
2014,12,29,15,17,1034.85
2014,12,29,15,18,1034.91
2014,12,29,15,19,1034.85
2014,12,29,15,20,1034.85
2014,12,29,15,21,1034.98
2014,12,29,15,22,1034.95
2014,12,29,15,23,1034.95
2014,12,29,15,24,1034.95
2014,12,29,15,25,1034.95
2014,12,29,15,26,1034.98
2014,12,29,15,27,1035.05
2014,12,29,15,28,1035.02
2014,12,29,15,29,1035.08
2014,12,29,15,30,1035.19
2014,12,29,15,31,1035.19
2014,12,29,15,32,1035.22
2014,12,29,15,33,1035.19
2014,12,29,15,34,1035.22
2014,12,29,15,35,1035.22
2014,12,29,15,36,1035.19
2014,12,29,15,37,1035.25
2014,12,29,15,38,1035.19
2014,12,29,15,39,1035.22
2014,12,29,15,40,1035.19
2014,12,29,15,41,1035.15
2014,12,29,15,42,1035.22
2014,12,29,15,43,1035.29
2014,12,29,15,44,1035.29
2014,12,29,15,45,1035.25
2014,12,29,15,46,1035.32
2014,12,29,15,47,1035.35
2014,12,29,15,48,1035.35
2014,12,29,15,49,1035.39
2014,12,29,15,50,1035.48
2014,12,29,15,51,1035.49
2014,12,29,15,52,1035.52
2014,12,29,15,53,1035.62
2014,12,29,15,54,1035.59
2014,12,29,15,55,1035.69
2014,12,29,15,56,1035.76
2014,12,29,15,57,1035.76
2014,12,29,15,58,1035.86
2014,12,29,15,59,1035.86
2014,12,29,16,00,1035.93
2014,12,29,16,01,1035.93
2014,12,29,16,02,1035.96
2014,12,29,16,03,1035.96
2014,12,29,16,04,1035.96
2014,12,29,16,05,1036.03
2014,12,29,16,06,1036.07
2014,12,29,16,07,1036.07
2014,12,29,16,08,1036.13
2014,12,29,16,09,1036.17
2014,12,29,16,10,1036.24
2014,12,29,16,11,1036.17
2014,12,29,16,12,1036.24
2014,12,29,16,13,1036.20
2014,12,29,16,14,1036.20
2014,12,29,16,15,1036.24
2014,12,29,16,16,1036.30
2014,12,29,16,17,1036.34
2014,12,29,16,18,1036.34
2014,12,29,16,19,1036.37
2014,12,29,16,20,1036.30
2014,12,29,16,21,1036.30
2014,12,29,16,22,1036.30
2014,12,29,16,23,1036.34
2014,12,29,16,24,1036.37
2014,12,29,16,25,1036.40
2014,12,29,16,26,1036.37
2014,12,29,16,27,1036.40
2014,12,29,16,28,1036.44
2014,12,29,16,29,1036.44
2014,12,29,16,30,1036.40
2014,12,29,16,31,1036.34
2014,12,29,16,32,1036.37
2014,12,29,16,33,1036.40
2014,12,29,16,34,1036.37
2014,12,29,16,35,1036.50
2014,12,29,16,36,1036.47
2014,12,29,16,37,1036.51
2014,12,29,16,38,1036.54
2014,12,29,16,39,1036.51
2014,12,29,16,40,1036.47
2014,12,29,16,41,1036.54
2014,12,29,16,42,1036.57
2014,12,29,16,43,1036.57
2014,12,29,16,44,1036.61
2014,12,29,16,45,1036.61
2014,12,29,16,46,1036.68
2014,12,29,16,47,1036.71
2014,12,29,16,48,1036.64
2014,12,29,16,49,1036.71
2014,12,29,16,50,1036.74
2014,12,29,16,51,1036.81
2014,12,29,16,52,1036.81
2014,12,29,16,53,1036.78
2014,12,29,16,54,1036.81
2014,12,29,16,55,1036.81
2014,12,29,16,56,1036.84
2014,12,29,16,57,1036.81
2014,12,29,16,58,1036.84
2014,12,29,16,59,1036.88
2014,12,29,17,00,1036.88
2014,12,29,17,01,1036.94
2014,12,29,17,02,1036.98
2014,12,29,17,03,1036.98
2014,12,29,17,04,1036.95
2014,12,29,17,05,1036.98
2014,12,29,17,06,1036.95
2014,12,29,17,07,1036.98
2014,12,29,17,08,1036.95
2014,12,29,17,09,1036.98
2014,12,29,17,10,1036.98
2014,12,29,17,11,1036.98
2014,12,29,17,12,1037.05
2014,12,29,17,13,1037.08
2014,12,29,17,14,1037.08
2014,12,29,17,15,1037.08
2014,12,29,17,16,1037.15
2014,12,29,17,17,1037.15
2014,12,29,17,18,1037.18
2014,12,29,17,19,1037.18
2014,12,29,17,20,1037.18
2014,12,29,17,21,1037.18
2014,12,29,17,22,1037.22
2014,12,29,17,23,1037.25
2014,12,29,17,24,1037.29
2014,12,29,17,25,1037.29
2014,12,29,17,26,1037.32
2014,12,29,17,27,1037.32
2014,12,29,17,28,1037.32
2014,12,29,17,29,1037.35
2014,12,29,17,30,1037.39
2014,12,29,17,31,1037.39
2014,12,29,17,32,1037.39
2014,12,29,17,33,1037.45
2014,12,29,17,34,1037.49
2014,12,29,17,35,1037.45
2014,12,29,17,36,1037.42
2014,12,29,17,37,1037.49
2014,12,29,17,38,1037.42
2014,12,29,17,39,1037.39
2014,12,29,17,40,1037.42
2014,12,29,17,41,1037.42
2014,12,29,17,42,1037.45
2014,12,29,17,43,1037.45
2014,12,29,17,44,1037.45
2014,12,29,17,45,1037.49
2014,12,29,17,46,1037.45
2014,12,29,17,47,1037.49
2014,12,29,17,48,1037.52
2014,12,29,17,49,1037.52
2014,12,29,17,50,1037.52
2014,12,29,17,51,1037.52
2014,12,29,17,52,1037.61
2014,12,29,17,53,1037.56
2014,12,29,17,54,1037.56
2014,12,29,17,55,1037.52
2014,12,29,17,56,1037.52
2014,12,29,17,57,1037.52
2014,12,29,17,58,1037.52
2014,12,29,17,59,1037.56
2014,12,29,18,00,1037.59
2014,12,29,18,01,1037.66
2014,12,29,18,02,1037.69
2014,12,29,18,03,1037.73
2014,12,29,18,04,1037.76
2014,12,29,18,05,1037.76
2014,12,29,18,06,1037.79
2014,12,29,18,07,1037.79
2014,12,29,18,08,1037.76
2014,12,29,18,09,1037.76
2014,12,29,18,10,1037.83
2014,12,29,18,11,1037.76
2014,12,29,18,12,1037.85
2014,12,29,18,13,1037.83
2014,12,29,18,14,1037.86
2014,12,29,18,15,1037.83
2014,12,29,18,16,1037.79
2014,12,29,18,17,1037.79
2014,12,29,18,18,1037.86
2014,12,29,18,19,1037.89
2014,12,29,18,20,1037.93
2014,12,29,18,21,1037.89
2014,12,29,18,22,1037.89
2014,12,29,18,23,1037.89
2014,12,29,18,24,1037.89
2014,12,29,18,25,1037.89
2014,12,29,18,26,1037.93
2014,12,29,18,27,1037.93
2014,12,29,18,28,1037.96
2014,12,29,18,29,1037.96
2014,12,29,18,30,1038.00
2014,12,29,18,31,1038.00
2014,12,29,18,32,1038.00
2014,12,29,18,33,1038.06
2014,12,29,18,34,1038.06
2014,12,29,18,35,1038.06
2014,12,29,18,36,1038.13
2014,12,29,18,37,1038.17
2014,12,29,18,38,1038.17
2014,12,29,18,39,1038.17
2014,12,29,18,40,1038.17
2014,12,29,18,41,1038.17
2014,12,29,18,42,1038.23
2014,12,29,18,43,1038.17
2014,12,29,18,44,1038.20
2014,12,29,18,45,1038.20
2014,12,29,18,46,1038.23
2014,12,29,18,47,1038.27
2014,12,29,18,48,1038.30
2014,12,29,18,49,1038.30
2014,12,29,18,50,1038.37
2014,12,29,18,51,1038.37
2014,12,29,18,52,1038.40
2014,12,29,18,53,1038.44
2014,12,29,18,54,1038.47
2014,12,29,18,55,1038.50
2014,12,29,18,56,1038.60
2014,12,29,18,57,1038.61
2014,12,29,18,58,1038.61
2014,12,29,18,59,1038.57
2014,12,29,19,00,1038.50
2014,12,29,19,01,1038.54
2014,12,29,19,02,1038.54
2014,12,29,19,03,1038.54
2014,12,29,19,04,1038.61
2014,12,29,19,05,1038.57
2014,12,29,19,06,1038.57
2014,12,29,19,07,1038.61
2014,12,29,19,08,1038.64
2014,12,29,19,09,1038.64
2014,12,29,19,10,1038.71
2014,12,29,19,11,1038.67
2014,12,29,19,12,1038.67
2014,12,29,19,13,1038.74
2014,12,29,19,14,1038.74
2014,12,29,19,15,1038.74
2014,12,29,19,16,1038.78
2014,12,29,19,17,1038.65
2014,12,29,19,18,1038.71
2014,12,29,19,19,1038.71
2014,12,29,19,20,1038.74
2014,12,29,19,21,1038.74
2014,12,29,19,22,1038.74
2014,12,29,19,23,1038.74
2014,12,29,19,24,1038.74
2014,12,29,19,25,1038.78
2014,12,29,19,26,1038.81
2014,12,29,19,27,1038.81
2014,12,29,19,28,1038.81
2014,12,29,19,29,1038.84
2014,12,29,19,30,1038.81
2014,12,29,19,31,1038.87
2014,12,29,19,32,1038.88
2014,12,29,19,33,1038.91
2014,12,29,19,34,1038.91
2014,12,29,19,35,1038.91
2014,12,29,19,36,1038.88
2014,12,29,19,37,1038.93
2014,12,29,19,38,1038.94
2014,12,29,19,39,1038.98
2014,12,29,19,40,1039.01
2014,12,29,19,41,1039.05
2014,12,29,19,42,1039.01
2014,12,29,19,43,1039.07
2014,12,29,19,44,1039.08
2014,12,29,19,45,1039.11
2014,12,29,19,46,1039.11
2014,12,29,19,47,1039.11
2014,12,29,19,48,1039.15
2014,12,29,19,49,1039.22
2014,12,29,19,50,1039.22
2014,12,29,19,51,1039.25
2014,12,29,19,52,1039.25
2014,12,29,19,53,1039.28
2014,12,29,19,54,1039.32
2014,12,29,19,55,1039.28
2014,12,29,19,56,1039.32
2014,12,29,19,57,1039.28
2014,12,29,19,58,1039.32
2014,12,29,19,59,1039.28
2014,12,29,20,00,1039.32
2014,12,29,20,01,1039.35
2014,12,29,20,02,1039.38
2014,12,29,20,03,1039.42
2014,12,29,20,04,1039.42
2014,12,29,20,05,1039.58
2014,12,29,20,06,1039.62
2014,12,29,20,07,1039.59
2014,12,29,20,08,1039.62
2014,12,29,20,09,1039.59
2014,12,29,20,10,1039.59
2014,12,29,20,11,1039.59
2014,12,29,20,12,1039.59
2014,12,29,20,13,1039.55
2014,12,29,20,14,1039.59
2014,12,29,20,15,1039.59
2014,12,29,20,16,1039.62
2014,12,29,20,17,1039.62
2014,12,29,20,18,1039.66
2014,12,29,20,19,1039.66
2014,12,29,20,20,1039.59
2014,12,29,20,21,1039.62
2014,12,29,20,22,1039.66
2014,12,29,20,23,1039.69
2014,12,29,20,24,1039.72
2014,12,29,20,25,1039.69
2014,12,29,20,26,1039.59
2014,12,29,20,27,1039.55
2014,12,29,20,28,1039.55
2014,12,29,20,29,1039.52
2014,12,29,20,30,1039.52
2014,12,29,20,31,1039.52
2014,12,29,20,32,1039.52
2014,12,29,20,33,1039.55
2014,12,29,20,34,1039.59
2014,12,29,20,35,1039.55
2014,12,29,20,36,1039.61
2014,12,29,20,37,1039.66
2014,12,29,20,38,1039.66
2014,12,29,20,39,1039.81
2014,12,29,20,40,1039.79
2014,12,29,20,41,1039.82
2014,12,29,20,42,1039.79
2014,12,29,20,43,1039.76
2014,12,29,20,44,1039.72
2014,12,29,20,45,1039.76
2014,12,29,20,46,1039.76
2014,12,29,20,47,1039.76
2014,12,29,20,48,1039.79
2014,12,29,20,49,1039.76
2014,12,29,20,50,1039.76
2014,12,29,20,51,1039.76
2014,12,29,20,52,1039.76
2014,12,29,20,53,1039.79
2014,12,29,20,54,1039.76
2014,12,29,20,55,1039.76
2014,12,29,20,56,1039.85
2014,12,29,20,57,1039.86
2014,12,29,20,58,1039.89
2014,12,29,20,59,1039.89
2014,12,29,21,00,1039.93
2014,12,29,21,01,1039.87
2014,12,29,21,02,1039.86
2014,12,29,21,03,1039.89
2014,12,29,21,04,1039.93
2014,12,29,21,05,1039.93
2014,12,29,21,06,1039.93
2014,12,29,21,07,1039.89
2014,12,29,21,08,1039.89
2014,12,29,21,09,1039.93
2014,12,29,21,10,1039.93
2014,12,29,21,11,1040.02
2014,12,29,21,12,1040.03
2014,12,29,21,13,1040.12
2014,12,29,21,14,1040.13
2014,12,29,21,15,1040.16
2014,12,29,21,16,1040.16
2014,12,29,21,17,1040.13
2014,12,29,21,18,1040.16
2014,12,29,21,19,1040.16
2014,12,29,21,20,1040.22
2014,12,29,21,21,1040.20
2014,12,29,21,22,1040.16
2014,12,29,21,23,1040.23
2014,12,29,21,24,1040.30
2014,12,29,21,25,1040.27
2014,12,29,21,26,1040.27
2014,12,29,21,27,1040.23
2014,12,29,21,28,1040.29
2014,12,29,21,29,1040.33
2014,12,29,21,30,1040.48
2014,12,29,21,31,1040.47
2014,12,29,21,32,1040.50
2014,12,29,21,33,1040.54
2014,12,29,21,34,1040.48
2014,12,29,21,35,1040.47
2014,12,29,21,36,1040.47
2014,12,29,21,37,1040.50
2014,12,29,21,38,1040.54
2014,12,29,21,39,1040.54
2014,12,29,21,40,1040.63
2014,12,29,21,41,1040.60
2014,12,29,21,42,1040.66
2014,12,29,21,43,1040.67
2014,12,29,21,44,1040.71
2014,12,29,21,45,1040.71
2014,12,29,21,46,1040.71
2014,12,29,21,47,1040.74
2014,12,29,21,48,1040.77
2014,12,29,21,49,1040.86
2014,12,29,21,50,1040.82
2014,12,29,21,51,1040.75
2014,12,29,21,52,1040.77
2014,12,29,21,53,1040.74
2014,12,29,21,54,1040.83
2014,12,29,21,55,1040.81
2014,12,29,21,56,1040.84
2014,12,29,21,57,1040.87
2014,12,29,21,58,1040.93
2014,12,29,21,59,1040.91
2014,12,29,22,00,1040.94
2014,12,29,22,01,1040.88
2014,12,29,22,02,1040.93
2014,12,29,22,03,1040.98
2014,12,29,22,04,1041.07
2014,12,29,22,05,1041.11
2014,12,29,22,06,1041.08
2014,12,29,22,07,1041.14
2014,12,29,22,08,1041.11
2014,12,29,22,09,1041.11
2014,12,29,22,10,1041.15
2014,12,29,22,11,1041.18
2014,12,29,22,12,1041.18
2014,12,29,22,13,1041.15
2014,12,29,22,14,1041.15
2014,12,29,22,15,1041.15